STARLINK-35990

Last updated on Mon Dec 15 2025 00:02:11 GMT+0000 (Coordinated Universal Time)

1 66792U 25278B 25348.25003472 -.01167190 00000+0 -58888-2 0 9994 2 66792 42.9970 242.8373 0001997 276.6475 97.3827 15.83131283 3201
UTC large
Height (km)
Speed (km/s)
/
Latitude / Longitude
Inclination (degrees)
Orbital Period (minutes)
Azimuth
Elevation
Range (km)
Doppler Factor

Next 0 passes for location: London (51.5072 / 0.1276)

Sorry there are no passes over London.